Skip Page Navigation
NASA JPL Caltech
NASA Logo - Jet Propulsion Laboratory + View the NASA Portal
+ Center for Near-Earth Object Studies
JPL Home Earth Solar System Stars & Galaxies Technology
JPL Solar System Dynamics
BODIES ORBITS EPHEMERIDES TOOLS PHYSICAL DATA DISCOVERY FAQ SITE MAP
IMPORTANT: The SSD Announcement email list is now available. Major changes are coming in the near future, including possible hostname and/or URL changes. To be notified of such changes, subscribe to this email list.

Please visit this page for more details.


JPL Small-Body Database Browser
Search: [ help ]  
136126 (2003 QN79)
Classification: Main-belt Asteroid          SPK-ID: 2136126
Ephemeris | Orbit Diagram | Orbital Elements | Mission Design | Physical Parameters | Discovery Circumstances ]

[ show orbit diagram ]
Orbital Elements at Epoch 2459000.5 (2020-May-31.0) TDB
Reference: JPL 21 (heliocentric ecliptic J2000)
 Element Value Uncertainty (1-sigma)   Units 
e .2317822455435575 4.9568e-08  
a 2.23650642828026 1.0922e-08 au
q 1.71812394616086 1.1313e-07 au
i 6.860510022290433 5.2282e-06 deg
node 78.32851113941032 4.2539e-05 deg
peri 270.0277032118705 4.406e-05 deg
M 24.11243980116168 1.4853e-05 deg
tp 2458918.673814014274
(2020-Mar-10.17381401)
5.0064e-05 TDB
period 1221.669279333664
3.34
8.9492e-06
2.45e-08
d
yr
n .29467876952456 2.1586e-09 deg/d
Q 2.75488891039966 1.3454e-08 au
  Orbit Determination Parameters
   # obs. used (total)      436  
   data-arc span      9276 days (25.40 yr)  
   first obs. used      1993-12-17  
   last obs. used      2019-05-11  
   planetary ephem.      DE431  
   SB-pert. ephem.      SB431-N16  
   condition code      0  
   norm. resid. RMS      .54293  
   source      ORB  
   producer      Otto Matic  
   solution date      2019-May-30 07:12:41  

Additional Information
 Earth MOID = .728774 au 
 Jupiter MOID = 2.69595 au 
 T_jup = 3.593 
[ show covariance matrix ]

Ephemeris | Orbit Diagram | Orbital Elements | Mission Design | Physical Parameters | Discovery Circumstances ]

Physical Parameter Table
Parameter Symbol Value Units Sigma Reference Notes
absolute magnitude H 16.3   n/a MPO436669  

136126 (2003 QN79)          Discovered 2003-Aug-26 by LINEAR at Socorro
Reference: 20060907/Numbers.arcLast Updated: 2006-09-10
Ephemeris | Orbit Diagram | Orbital Elements | Mission Design | Physical Parameters | Discovery Circumstances ]
ABOUT SSD CREDITS/AWARDS PRIVACY/COPYRIGHT GLOSSARY LINKS
FirstGov 2020-Jun-06 02:47 UT
(server date/time)  
NASA Home Page
Site Manager:   Ryan S. Park
Webmaster  Alan B. Chamberlin